Regional Weather Roundup
Issued by NWS Goodland, KS

Home | Current Version | Previous Version | Graphics & Text | Print | Product List | Glossary On
Versions: 1 2 3 4 5 6 7 8 9 10 11 12 13 14 15 16 17 18 19 20 21 22 23 24 25 26 27 28 29 30 31 32 33 34 35 36 37 38 39 40 41 42 43 44 45 46 47 48 49 50
000
ASUS43 KGLD 251359
RWRGLD

GOODLAND FORECAST AREA HOURLY WEATHER ROUNDUP
NATIONAL WEATHER SERVICE GOODLAND KS
800 AM MDT SAT OCT 25 2014

...OFFICIAL OBSERVATIONS...

CITY           SKY/WX    TMP DP  RH WIND       PRES   REMARKS
GOODLAND KS    CLEAR     49  34  56 W6        30.15R
HILL CITY KS   SUNNY     48  42  80 W3        30.09R
IMPERIAL NEB   CLEAR     45  33  63 NW6       30.14R
MCCOOK NEB     CLEAR     42  36  79 CALM      30.11R
AKRON CO       PTCLDY    45  30  55 W14       30.18R
BURLINGTON CO  CLEAR     48  33  56 W5        30.16R
LIMON CO       CLEAR     47  28  47 W9        30.24R
$$

...UNOFFICIAL OBSERVATIONS...

CITY           SKY/WX    TMP DP  RH WIND       PRES   REMARKS
COLBY KS       CLEAR     48  39  71 W5        30.13R
NORTON KS      CLEAR     48  36  61 N7        30.08R
SHARON SPRINGS   N/A     48  39  72 CALM        N/A
KIT CARSON CO    N/A     48  37  65 CALM        N/A
YUMA CO          N/A     41  30  65 W6          N/A
$$



USA.gov is the U.S. government's official web portal to all federal, state and local government web resources and services.